Milledgeville, GA

1:47 AM EST on November 21, 2019 (GMT -0500)
Baldwin County

Weather History for KMLJ - September, 2019

Change the Weather History Date:

Friday, September 6, 2019

  Actual Average (KOKZ) Record (KOKZ)
Temperature  
Mean Temperature 82 °F -  
Max Temperature 95 °F 84 °F 92 °F (2019)
Min Temperature 69 °F 65 °F 59 °F (2016)
Cooling Degree Days 17    
Growing Degree Days 32 (Base 50)    
Moisture  
Dew Point 63 °F    
Average Humidity 56    
Maximum Humidity 88    
Minimum Humidity 30    
Precipitation  
Precipitation 0.00 in - - ()
Sea Level Pressure  
Sea Level Pressure 29.88 in    
Wind  
Wind Speed 2 mph (NW)    
Max Wind Speed 9 mph    
Max Gust Speed 18 mph    
Visibility 10 miles    
Events      
Averages and records for this station are not official NWS values.
T = Trace of Precipitation, MM = Missing Value Source: NWS Daily Summary

Daily Weather History Graph

Daily Weather History Graph

Search for Another Location

Airport or City:

Astronomy

Sep. 06, 2019 Rise Set
Actual Time 7:10 AM EDT 7:51 PM EDT
Civil Twilight 6:45 AM EDT 8:16 PM EDT
Nautical Twilight 6:15 AM EDT 8:46 PM EDT
Astronomical Twilight 5:45 AM EDT 9:16 PM EDT
Moon 2:54 PM EDT (9/6) 12:30 AM EDT (9/6)
Length of Visible Light 13h 31m
Length of Day
12h 41m
First Quarter, 55% of the Moon is Illuminated
Sep 6
First Quarter
Sep 14
Full
Sep 21
Last Quarter
Sep 28
New
Oct 5
First Quarter

Hourly Weather History & Observations

Time (EDT) Temp. Heat Index Dew Point Humidity Pressure Visibility Wind Dir Wind Speed Gust Speed Precip Events Conditions
12:15 AM 78.8 °F - 64.4 °F 61% 29.85 in 10.0 mi Calm Calm - N/A   Clear
12:35 AM 77.0 °F - 64.4 °F 65% 29.85 in 10.0 mi Calm Calm - N/A   Clear
12:55 AM 77.0 °F - 64.4 °F 65% 29.85 in 10.0 mi NNW 3.5 mph - N/A   Clear
1:15 AM 75.2 °F - 64.4 °F 69% 29.85 in 10.0 mi NW 3.5 mph - N/A   Clear
1:35 AM 75.2 °F - 64.4 °F 69% 29.86 in 10.0 mi NW 4.6 mph - N/A   Clear
1:55 AM 75.2 °F - 64.4 °F 69% 29.86 in 10.0 mi NW 3.5 mph - N/A   Clear
2:15 AM 73.4 °F - 64.4 °F 73% 29.86 in 10.0 mi NW 4.6 mph - N/A   Clear
2:55 AM 75.2 °F - 64.4 °F 69% 29.86 in 10.0 mi Calm Calm - N/A   Clear
3:15 AM 73.4 °F - 64.4 °F 73% 29.86 in 10.0 mi Calm Calm - N/A   Clear
3:35 AM 73.4 °F - 64.4 °F 73% 29.85 in 10.0 mi Calm Calm - N/A   Clear
3:55 AM 71.6 °F - 64.4 °F 78% 29.85 in 10.0 mi Calm Calm - N/A   Clear
4:15 AM 71.6 °F - 64.4 °F 78% 29.85 in 10.0 mi Calm Calm - N/A   Clear
4:35 AM 71.6 °F - 64.4 °F 78% 29.86 in 10.0 mi Calm Calm - N/A   Clear
5:15 AM 71.6 °F - 66.2 °F 83% 29.86 in 10.0 mi Calm Calm - N/A   Clear
5:35 AM 69.8 °F - 66.2 °F 88% 29.87 in 10.0 mi Calm Calm - N/A   Clear
5:55 AM 69.8 °F - 66.2 °F 88% 29.88 in 10.0 mi WNW 3.5 mph - N/A   Clear
6:15 AM 69.8 °F - 66.2 °F 88% 29.89 in 7.0 mi Calm Calm - N/A   Clear
6:35 AM 69.8 °F - 64.4 °F 83% 29.89 in 10.0 mi Calm Calm - N/A   Clear
6:55 AM 69.8 °F - 64.4 °F 83% 29.90 in 10.0 mi Calm Calm - N/A   Clear
7:15 AM 69.8 °F - 64.4 °F 83% 29.90 in 10.0 mi Calm Calm - N/A   Clear
7:35 AM 69.8 °F - 64.4 °F 83% 29.90 in 10.0 mi Calm Calm - N/A   Clear
7:55 AM 69.8 °F - 64.4 °F 83% 29.91 in 10.0 mi Calm Calm - N/A   Clear
8:35 AM 73.4 °F - 64.4 °F 73% 29.91 in 10.0 mi NW 3.5 mph - N/A   Clear
8:55 AM 75.2 °F - 64.4 °F 69% 29.92 in 10.0 mi NW 4.6 mph - N/A   Clear
9:15 AM 77.0 °F - 64.4 °F 65% 29.92 in 10.0 mi NNW 4.6 mph - N/A   Clear
9:35 AM 77.0 °F - 64.4 °F 65% 29.92 in 10.0 mi NW 4.6 mph - N/A   Clear
9:55 AM 78.8 °F - 64.4 °F 61% 29.92 in 10.0 mi NW 3.5 mph - N/A   Clear
10:15 AM 80.6 °F 82.7 °F 66.2 °F 61% 29.93 in 10.0 mi Calm Calm - N/A   Clear
10:35 AM 82.4 °F 83.9 °F 64.4 °F 54% 29.93 in 10.0 mi WNW 4.6 mph - N/A   Clear
10:55 AM 82.4 °F 83.9 °F 64.4 °F 54% 29.93 in 10.0 mi Calm Calm - N/A   Clear
11:15 AM 86.0 °F 87.3 °F 64.4 °F 48% 29.92 in 10.0 mi Calm Calm - N/A   Clear
11:35 AM 86.0 °F 87.3 °F 64.4 °F 48% 29.92 in 10.0 mi Calm Calm - N/A   Clear
11:55 AM 87.8 °F 89.4 °F 64.4 °F 46% 29.92 in 10.0 mi North 3.5 mph - N/A   Clear
12:15 PM 87.8 °F 89.4 °F 64.4 °F 46% 29.91 in 10.0 mi Calm Calm - N/A   Clear
12:35 PM 89.6 °F 91.1 °F 64.4 °F 43% 29.90 in 10.0 mi Calm Calm - N/A   Clear
12:55 PM 91.4 °F 93.2 °F 64.4 °F 41% 29.89 in 10.0 mi NW 5.8 mph - N/A   Clear
1:15 PM 91.4 °F 92.1 °F 62.6 °F 38% 29.89 in 10.0 mi West 8.1 mph 18.4 mph N/A   Clear
1:35 PM 91.4 °F 92.1 °F 62.6 °F 38% 29.89 in 10.0 mi WSW 6.9 mph - N/A   Clear
1:55 PM 93.2 °F 94.9 °F 64.4 °F 38% 29.89 in 10.0 mi West 5.8 mph - N/A   Clear
2:15 PM 91.4 °F 93.2 °F 64.4 °F 41% 29.88 in 10.0 mi WNW 6.9 mph - N/A   Scattered Clouds
2:35 PM 91.4 °F 93.2 °F 64.4 °F 41% 29.87 in 10.0 mi NW 9.2 mph - N/A   Scattered Clouds
2:55 PM 91.4 °F 92.1 °F 62.6 °F 38% 29.87 in 10.0 mi WNW 6.9 mph 12.7 mph N/A   Scattered Clouds
3:15 PM 91.4 °F 92.1 °F 62.6 °F 38% 29.86 in 10.0 mi NW 9.2 mph 17.3 mph N/A   Scattered Clouds
3:35 PM 95.0 °F 96.0 °F 62.6 °F 34% 29.85 in 10.0 mi WNW 3.5 mph - N/A   Clear
3:55 PM 93.2 °F 94.1 °F 62.6 °F 36% 29.85 in 10.0 mi WNW 4.6 mph - N/A   Clear
4:15 PM 93.2 °F 94.1 °F 62.6 °F 36% 29.84 in 10.0 mi WNW 4.6 mph - N/A   Clear
4:35 PM 95.0 °F 96.0 °F 62.6 °F 34% 29.84 in 10.0 mi Calm Calm - N/A   Clear
4:55 PM 95.0 °F 96.0 °F 62.6 °F 34% 29.84 in 10.0 mi Calm Calm - N/A   Clear
5:15 PM 95.0 °F 96.0 °F 62.6 °F 34% 29.84 in 10.0 mi WNW 5.8 mph - N/A   Clear
5:35 PM 95.0 °F 96.0 °F 62.6 °F 34% 29.84 in 10.0 mi West 3.5 mph - N/A   Scattered Clouds
5:55 PM 95.0 °F 95.2 °F 60.8 °F 32% 29.84 in 10.0 mi NW 4.6 mph - N/A   Clear
6:15 PM 95.0 °F 95.2 °F 60.8 °F 32% 29.84 in 10.0 mi NNW 5.8 mph - N/A   Clear
6:35 PM 95.0 °F 95.2 °F 60.8 °F 32% 29.84 in 10.0 mi NW 8.1 mph - N/A   Clear
6:55 PM 95.0 °F 94.4 °F 59.0 °F 30% 29.85 in 10.0 mi NNW 8.1 mph - N/A   Clear
7:15 PM 91.4 °F 90.7 °F 59.0 °F 34% 29.86 in 10.0 mi NW 9.2 mph - N/A   Clear
7:35 PM 89.6 °F 88.9 °F 59.0 °F 36% 29.86 in 10.0 mi NW 5.8 mph - N/A   Clear
7:55 PM 87.8 °F 86.5 °F 57.2 °F 35% 29.86 in 10.0 mi NW 5.8 mph - N/A   Clear
8:15 PM 86.0 °F 84.5 °F 55.4 °F 35% 29.87 in 10.0 mi NW 4.6 mph - N/A   Clear
8:35 PM 82.4 °F 82.0 °F 57.2 °F 42% 29.87 in 10.0 mi Calm Calm - N/A   Clear
8:55 PM 78.8 °F - 59.0 °F 51% 29.88 in 10.0 mi Calm Calm - N/A   Clear
9:15 PM 78.8 °F - 57.2 °F 47% 29.89 in 10.0 mi NNW 4.6 mph - N/A   Clear
9:35 PM 77.0 °F - 57.2 °F 50% 29.89 in 10.0 mi WNW 4.6 mph - N/A   Clear
9:55 PM 77.0 °F - 59.0 °F 54% 29.90 in 10.0 mi WNW 3.5 mph - N/A   Clear
10:15 PM 73.4 °F - 60.8 °F 65% 29.90 in 7.0 mi WNW 4.6 mph - N/A   Clear
10:55 PM 73.4 °F - 59.0 °F 61% 29.91 in 10.0 mi WNW 4.6 mph - N/A   Clear
11:15 PM 73.4 °F - 59.0 °F 61% 29.91 in 10.0 mi Calm Calm - N/A   Clear
11:55 PM 71.6 °F - 59.0 °F 64% 29.91 in 10.0 mi Calm Calm - N/A   Clear